Location: Huesca
(42.1318°N, 0.4078°W)
Time: 17:35:06
(UTC+02:00)

Tiangong - Visible Passes

Search period start: 14 June 2024 00:00
Search period end: 24 June 2024 00:00
Orbit: 380 x 385 km, 41.5° (Epoch: 13 June)

Date Brightness Start Highest point End Pass type
(mag) Time Alt. Az. Time Alt. Az. Time Alt. Az.
14 Jun 0.4 00:11:13 10° WSW 00:11:54 13° WSW 00:11:54 13° WSW visible
14 Jun -1.0 23:10:32 10° W 23:13:20 29° SSW 23:14:09 25° S visible
15 Jun -1.5 22:10:01 10° W 22:13:03 43° SSW 22:16:04 10° SE visible
15 Jun 0.5 23:48:10 10° SW 23:48:32 11° SW 23:48:32 11° SW visible
16 Jun -0.2 22:46:47 10° WSW 22:49:07 19° SSW 22:50:46 13° S visible
18 Jun 0.4 22:23:27 10° WSW 22:24:43 12° SSW 22:25:58 10° S visible
